{"data":{"norad_id":48640,"epoch":"2026-09-19T17:51:01.905120Z","epoch_age_seconds":102520,"freshness":"FRESH","line1":"1 48640U 21044C   26262.74377205 -.00001844  00000+0 -47682-4 0  9995","line2":"2 48640  53.1598 290.7233 0001326  80.9945 279.1206 15.31696591293555","mean_motion":15.31696591,"eccentricity":0.0001326,"inclination_deg":53.1598,"raan_deg":290.7233,"arg_perigee_deg":80.9945,"mean_anomaly_deg":279.1206,"bstar":-4.7682e-5,"rev_number":29355,"period_min":94.013397200281,"perigee_km":469.84199485905,"apogee_km":471.65831973316,"semimajor_km":6848.8871572961,"source":"CELESTRAK","updated_at":"2026-09-20T09:00:39.139929Z"}}